Location: Saluda
(35.2377°N, 82.3468°W)
Time: 04:55:43
(UTC+00:00)

Tiros 1 - Pass Details

Date: 05 October 2022
Orbit: 629 x 662 km, 48.4° (Epoch: 09 December)

Event Time Altitude Azimuth Distance (km) Brightness Sun altitude
Exits shadow 10:40:36 10° 298° (WNW) 2,053 9.2 -10.4°
Reaches altitude 10° 10:40:36 10° 298° (WNW) 2,053 9.2 -10.4°
Maximum altitude 10:45:11 52° 223° (SW) 798 7.4 -9.4°
Drops below altitude 10° 10:49:43 10° 146° (SSE) 2,022 10.2 -8.5°
Sets 10:52:04 0° 142° (SE) 2,922 11.1 -8.0°
